(480960) = 2003 UU30

Discovered at Kitt Peak on 2003-10-16 by Spacewatch.

Orbit

Orbit type: Mars-crosser

Note: WebGL enabled browser required.

epoch2023-09-13.0
epoch JD2460200.5
perihelion date2022-09-01.49097
perihelion JD2459823.99097
argument of perihelion (°)36.53401
ascending node (°)291.11018
inclination (°)3.62857
eccentricity0.2343310
perihelion distance (AU)1.6590586
Tisserand w.r.t. Jupiter3.7
ΔV w.r.t. Earth (km/sec)7.9
semimajor axis (AU)2.1668092
mean anomaly (°)116.34513
mean daily motion (°/day)0.30901020
aphelion distance (AU)2.675
period (years)3.19
P-vector [x]0.84362765
P-vector [y]-0.50639463
P-vector [z]-0.17848494
Q-vector [x]0.53367271
Q-vector [y]0.75427451
Q-vector [z]0.38244399
absolute magnitude18.82
phase slope0.15
uncertainty0
referenceMPO 780240
observations used154
oppositions8
arc length (days)6944
first opposition used2003
last opposition used2022
residual rms (arc-secs)0.60
perturbers coarse indicatorM-v
perturbers precise indicator003Ek
first observation date used2003-09-22.0
last observation date used2022-09-26.0
computer nameMPCLINUX
Minimum Orbit Intersection Distances (in AU)
for orbit epoch: 2460200.5, reference: E2023-TP1
Mercury1.25032
Venus0.93654
Earth0.64861
Mars0.29073
Jupiter2.66297
Saturn6.51958
Uranus15.7937
Neptune27.6555

Observations

154 total observations over interval: 2003 09 22.32392 – 2022 09 26.287517
These data are available for download (format description).

